Regional Weather Roundup
Issued by NWS Boston, MA

Home | Current Version | Previous Version | Text Only | Print | Product List | Glossary On
Versions: 1 2 3 4 5 6 7 8 9 10 11 12 13 14 15 16 17 18 19 20 21 22 23 24 25 26 27 28 29 30 31 32 33 34 35 36 37 38 39 40 41 42 43 44 45 46 47 48 49 50
000
ASUS41 KBOX 291310
RWRBOX

REGIONAL WEATHER ROUNDUP
NATIONAL WEATHER SERVICE TAUNTON MA
900 AM EDT FRI MAY 29 2015

NOTE:  "FAIR" INDICATES FEW OR NO CLOUDS BELOW 12,000 FEET WITH NO
SIGNIFICANT WEATHER AND/OR OBSTRUCTIONS TO VISIBILITY.  THE FOLLOWING
OBSERVATION LOCATIONS DO NOT REPORT PRESENT WEATHER...PROVINCETOWN...
SMITHFIELD...BLOCK ISLAND...KEENE...AND OXFORD.

MAZALL-291400-
EASTERN MASSACHUSETTS

CITY           SKY/WX    TMP DP  RH WIND       PRES   REMARKS
BOSTON         MOSUNNY   71  58  63 N9        30.30R
BEVERLY        PTSUNNY   70  57  63 NE10      30.30R
LAWRENCE       MOSUNNY   71  59  65 NE10      30.32R
BEDFORD        SUNNY     71  58  63 VRB6      30.29S
BLUE HILL        N/A     70  57  63 NE8       30.30R
NORWOOD        MOSUNNY   72  58  61 E7        30.29R
MARSHFIELD     SUNNY     70  57  64 N7        30.31R
PLYMOUTH       SUNNY     71  58  63 NE9       30.29R
TAUNTON        SUNNY     73  59  61 VRB5      30.28S
NEW BEDFORD    SUNNY     72  58  61 NE7       30.28R
$$

MAZALL-291400-
CAPE COD AND THE ISLANDS

CITY           SKY/WX    TMP DP  RH WIND       PRES   REMARKS
FALMOUTH       SUNNY     70  59  68 NE8       30.29R
HYANNIS        SUNNY     67  57  70 N12       30.27R
CHATHAM        SUNNY     70  58  65 E7        30.29R
PROVINCETOWN   SUNNY     63  54  72 NW6       30.30R
NANTUCKET      SUNNY     71  58  63 N6        30.28R
MARTHAS VNYRD  SUNNY     71  58  63 N6        30.28R
$$

MAZALL-291400-
CENTRAL AND WESTERN MASSACHUSETTS

CITY           SKY/WX    TMP DP  RH WIND       PRES   REMARKS
WORCESTER      SUNNY     69  55  60 NE7       30.32S
FITCHBURG      SUNNY     71  56  58 N6        30.32R
ORANGE         SUNNY     67  56  67 NW6       30.32S
SPRINGFIELD    SUNNY     68  57  66 VRB6      30.31R
WESTFIELD      SUNNY     71  56  58 NE8       30.32R
NORTH ADAMS    SUNNY     64  56  75 CALM      30.33S
PITTSFIELD     SUNNY     65  55  70 VRB3      30.33S
$$

RIZALL-291400-
RHODE ISLAND

CITY           SKY/WX    TMP DP  RH WIND       PRES   REMARKS
PROVIDENCE     MOSUNNY   73  57  57 N10       30.30R
NEWPORT        NOT AVBL
BLOCK ISLAND   SUNNY     66  57  72 NE8       30.30S
SMITHFIELD     SUNNY    N/A N/A N/A N7        30.30S
WESTERLY       SUNNY     72  58  61 VRB6      30.29S
$$

CTZALL-291400-
CONNECTICUT

CITY           SKY/WX    TMP DP  RH WIND       PRES   REMARKS
BRADLEY INTL   MOSUNNY   69  57  65 N6        30.31R
HARTFORD       SUNNY     69  56  62 N8        30.31S
BRIDGEPORT     SUNNY     72  58  61 NE7       30.30S
DANBURY        SUNNY     67  55  65 E8        30.33S
GROTON         SUNNY     71  58  63 N6        30.28S
NEW HAVEN      SUNNY     71  56  58 N9        30.29S
CHESTER        NOT AVBL
MERIDEN        SUNNY     71  56  58 NE8       30.30F
WILLIMANTIC    SUNNY     71  57  61 NE5       30.30F
OXFORD         SUNNY     66  55  68 NE9       30.32F
$$

MEZ002-015-021-024-NHZ003-005-008-011-012-014-VTZ005-008-291400-
NORTHERN NEW ENGLAND

CITY           SKY/WX    TMP DP  RH WIND       PRES   REMARKS
PORTLAND ME    MOSUNNY   72  61  68 N10       30.30R
BANGOR ME      MOSUNNY   66  56  70 N9        30.31R
CONCORD NH     SUNNY     69  56  62 W5        30.32R
MANCHESTER NH  MOSUNNY   72  56  57 N7        30.30R
NASHUA NH      SUNNY     70  58  65 N6        30.32R
PORTSMOUTH NH  PTSUNNY   71  58  65 NE7       30.29R
JAFFREY NH     SUNNY     66  56  70 VRB3      30.33R
KEENE NH       SUNNY     66  57  72 NW6       30.33S
BURLINGTON VT  PTSUNNY   63  57  81 E3        30.33S
MT. WASHINGTON PTSUNNY   48  34  57 NW6         N/A
$$

NYZ052-076-291400-
EASTERN NEW YORK

CITY           SKY/WX    TMP DP  RH WIND       PRES   REMARKS
ALBANY         MOSUNNY   68  55  63 CALM      30.33F
NEW YORK CITY  SUNNY     69  54  58 NE8       30.30S
$$

ANZALL-291400-
MARINE OBSERVATIONS

STATION/POSITION TIME  TEMP    WIND        PRES    VSBY  WAVE
                       AIR SEA DIR/SP/G                  HT/PER
                 (UTC) (F)     (DEG/KT/KT) (MB)    (MI)  (FT/S)
BOSTON BUOY      1250   57 55  280/  4/  6   N/A           1/ 9
BUZZARDS BAY     1300           10/  3/  3   N/A
NANTUCKET SOUND  1250   61 60  270/  4/  4   N/A           1
MASS BAY-STELLWA 1204   56 49  330/  2/  4   N/A    1 7/8  2/ 8
ISLE OF SHOALS   1300   64      20/ 12/ 13   N/A
S OF BLOCK IS    1208      56                N/A           3/ 5
$$

......................KEY.........................
  SKY/WX - SKY CONDITION/PRESENT WEATHER
  TMP    - TEMPERATURE IN FAHRENHEIT
  DWPT   - DEWPOINT IN FAHRENHEIT
  RH     - RELATIVE HUMIDITY IN PERCENT
  WIND   - DIRECTION AND SPEED IN MPH
  PRES   - MEAN SEA LEVEL PRESSURE IN INCHES OF HG
  WCI    - WIND CHILL INDEX
  VSB    - VISIBILITY IN MILES
  HX     - HEAT INDEX
  TC     - TEMPERATURE IN CELSIUS
  VRB    - VARIABLE WIND DIRECTION
  N/A    - NOT AVAILABLE


USA.gov is the U.S. government's official web portal to all federal, state and local government web resources and services.